Lobo

Go HERE for most recent data if this page is not up to date.

Jump to table bottom
Date/Time Temp deg F RH % 24 Hr Snow (in) Snow Depth (in) H2O (in)
05/21 17:00 29.5 61 "NAN" 55.7 0.00
05/21 16:00 28.9 60 "NAN" 55.7 0.00
05/21 15:00 27.6 65 "NAN" 55.7 0.00
05/21 14:00 26.9 75 "NAN" 53.9 0.00
05/21 13:00 26.8 60 "NAN" 55.7 0.00
05/21 12:00 26.7 62 "NAN" 55.8 0.00
05/21 11:00 24.4 61 "NAN" 55.7 0.00
05/21 10:00 23.1 65 "NAN" 56.0 0.00
05/21 09:00 20.6 68 "NAN" 56.0 0.00
05/21 08:00 18.1 75 "NAN" 56.0 0.00
05/21 07:00 16.3 75 "NAN" 56.0 0.00
05/21 06:00 15.7 73 "NAN" 55.9 0.00
05/21 05:00 15.7 84 "NAN" 56.0 0.00
05/21 04:00 15.1 89 "NAN" 56.0 0.00
05/21 03:00 15.0 79 "NAN" 56.0 0.00
05/21 02:00 15.9 69 "NAN" 56.1 0.00
05/21 01:00 16.5 76 "NAN" 56.0 0.00
05/21 00:00 17.8 74 "NAN" 55.7 0.00
05/20 23:00 19.6 84 "NAN" 56.1 0.01
05/20 22:00 20.4 86 "NAN" 56.0 0.01
05/20 21:00 21.0 84 "NAN" 55.8 0.01
05/20 20:00 22.4 85 "NAN" 55.8 0.01
05/20 19:00 22.5 71 "NAN" 55.7 0.01
05/20 18:00 23.0 86 "NAN" 55.6 0.00
05/20 17:00 24.2 71 "NAN" 55.5 0.01
05/20 16:00 25.4 78 "NAN" 55.9 0.00
05/20 15:00 24.8 63 "NAN" 55.6 0.02
05/20 14:00 24.4 81 "NAN" 56.2 0.00
05/20 13:00 22.9 67 "NAN" 56.4 0.00
05/20 12:00 22.7 66 "NAN" 56.9 0.00
05/20 11:00 21.2 69 "NAN" 57.1 0.00
05/20 10:00 19.8 79 "NAN" 57.1 0.00
05/20 09:00 19.0 83 "NAN" 57.0 0.00
05/20 08:00 17.8 87 "NAN" 56.2 0.01
05/20 07:00 16.4 89 "NAN" 56.2 0.02
05/20 06:00 16.1 88 "NAN" 55.8 0.03
05/20 05:00 15.8 89 "NAN" 55.5 0.02
05/20 04:00 15.9 90 "NAN" 54.6 0.04
05/20 03:00 17.7 90 "NAN" 54.8 0.09
05/20 02:00 18.1 90 "NAN" 53.5 0.04
05/20 01:00 18.1 87 "NAN" 53.3 0.02
05/20 00:00 18.6 82 "NAN" 53.1 0.00
.